W7SF Weather Reports


time (UTC)temp
C
wind
direction
speed
KPH
gust
KPH
rain 1hr
cm
rain 24hr
cm
rain mn
cm
humidity
%
barometer
mb
20260504234320 26 267 9.7 22.5 0.00 0.08 0.08 54 1002.4
20260504233820 26 213 6.4 16.1 0.00 0.08 0.08 54 1002.6
20260504233546 26 226 3.2 17.7 0.00 0.08 0.08 56 1002.3
20260504232819 26 225 8.0 22.5 0.00 0.08 0.08 56 1002.3
20260504232320 26 227 8.0 24.1 0.00 0.08 0.08 56 1002.4
20260504231820 26 181 4.8 24.1 0.00 0.08 0.08 55 1002.4
20260504231546 26 231 4.8 25.7 0.00 0.08 0.08 55 1002.3
20260504230819 26 218 17.7 25.7 0.00 0.08 0.08 54 1002.4
20260504230319 26 211 12.9 25.7 0.00 0.08 0.08 54 1002.0
20260504225820 26 226 6.4 37.0 0.00 0.08 0.08 54 1002.4
20260504225320 26 239 17.7 37.0 0.00 0.08 0.08 53 1002.4
20260504224820 26 273 6.4 33.8 0.00 0.08 0.08 53 1002.4
20260504224319 26 254 9.7 35.4 0.00 0.08 0.08 53 1002.3
20260504223819 26 258 11.3 35.4 0.00 0.08 0.08 52 1002.3
20260504223320 26 236 12.9 30.6 0.00 0.08 0.08 53 1002.1
20260504222820 26 216 11.3 29.0 0.00 0.08 0.08 53 1002.4
20260504222320 26 197 11.3 29.0 0.00 0.08 0.08 53 1002.1
20260504221820 27 171 14.5 29.0 0.00 0.08 0.08 53 1002.3
20260504221319 27 269 16.1 27.4 0.00 0.08 0.08 52 1002.3
20260504220819 27 216 12.9 24.1 0.00 0.08 0.08 52 1002.4
20260504220319 27 231 17.7 29.0 0.00 0.08 0.08 52 1002.3
20260504215819 27 261 3.2 38.6 0.00 0.08 0.08 53 1002.5
20260504215319 27 168 6.4 46.7 0.00 0.08 0.08 50 1002.3
20260504214820 26 261 6.4 46.7 0.00 0.08 0.08 54 1002.1
20260504214320 26 256 22.5 35.4 0.00 0.08 0.08 53 1002.3
20260504213814 26 246 11.3 43.5 0.00 0.08 0.08 53 1002.3
20260504213316 26 237 22.5 43.5 0.00 0.08 0.08 52 1002.3
20260504212815 26 233 14.5 48.3 0.00 0.08 0.08 53 1002.3
20260504212315 27 223 16.1 51.5 0.00 0.08 0.08 52 1002.4
20260504212033 26 225 19.3 54.7 0.00 0.08 0.08 51 1002.1
20260504211316 27 237 9.7 54.7 0.00 0.08 0.08 51 1002.5
20260504210804 27 207 17.7 43.5 0.00 0.08 0.08 50 1002.5
20260504210528 27 197 8.0 43.5 0.00 0.08 0.08 52 1002.3
20260504205803 27 247 9.7 40.2 0.00 0.08 0.08 54 1002.6
20260504205304 26 280 11.3 40.2 0.00 0.08 0.08 54 1002.5
20260504204803 26 255 6.4 40.2 0.00 0.08 0.08 54 1002.7
20260504204304 26 215 16.1 41.8 0.00 0.08 0.08 53 1002.5
20260504203803 26 254 24.1 41.8 0.00 0.08 0.08 55 1002.8
20260504203249 26 248 24.1 38.6 0.00 0.08 0.08 53 1002.9
20260504202748 26 209 20.9 38.6 0.00 0.08 0.08 52 1003.1
20260504202249 26 250 12.9 33.8 0.00 0.08 0.08 54 1002.7
20260504201748 26 226 17.7 30.6 0.00 0.08 0.08 52 1002.9
20260504201248 26 236 9.7 30.6 0.00 0.08 0.08 52 1002.9
20260504200749 26 220 4.8 35.4 0.00 0.08 0.08 51 1002.9
20260504200508 26 182 12.9 33.8 0.00 0.08 0.08 52 1002.9
20260504195748 26 211 22.5 33.8 0.00 0.08 0.08 52 1003.0
20260504195515 26 218 11.3 35.4 0.00 0.08 0.08 53 1003.1
20260504194748 26 182 6.4 35.4 0.00 0.08 0.08 56 1003.0
20260504194249 26 174 6.4 24.1 0.00 0.08 0.08 55 1003.1
20260504193748 26 251 6.4 33.8 0.00 0.08 0.08 54 1003.2
20260504193249 26 241 9.7 33.8 0.00 0.08 0.08 54 1003.1
20260504192749 26 234 9.7 37.0 0.00 0.08 0.08 53 1003.1
20260504192249 25 247 20.9 37.0 0.00 0.08 0.08 54 1003.3
20260504191748 25 176 11.3 35.4 0.00 0.08 0.08 54 1003.4
20260504191741 25 243 11.3 35.4 0.00 0.08 0.08 57 1003.5
20260504190749 25 196 12.9 33.8 0.00 0.08 0.08 54 1003.5
20260504190248 25 169 9.7 29.0 0.00 0.08 0.08 53 1003.7
20260504185749 25 221 17.7 29.0 0.00 0.08 0.08 54 1003.7
20260504185248 25 281 12.9 27.4 0.00 0.08 0.08 51 1003.8
20260504185015 25 303 12.9 27.4 0.00 0.08 0.08 55 1003.9
20260504184249 25 235 14.5 27.4 0.00 0.08 0.08 53 1003.9
20260504183749 25 191 6.4 30.6 0.00 0.08 0.08 54 1003.8
20260504183248 25 211 22.5 37.0 0.00 0.08 0.08 53 1003.8
20260504182748 25 200 14.5 37.0 0.00 0.08 0.08 58 1004.1
20260504182249 25 222 14.5 29.0 0.00 0.08 0.08 55 1003.9
20260504181747 25 247 6.4 22.5 0.00 0.08 0.08 57 1003.9
20260504181247 24 188 9.7 22.5 0.00 0.08 0.08 60 1004.1
20260504180748 23 176 8.0 22.5 0.00 0.08 0.08 57 1004.3
20260504180247 24 209 12.9 30.6 0.00 0.08 0.08 57 1004.1
20260504175747 23 225 12.9 30.6 0.00 0.08 0.08 57 1004.4
20260504175248 24 143 12.9 33.8 0.00 0.08 0.08 55 1004.4
20260504174748 23 180 6.4 33.8 0.00 0.08 0.08 58 1004.4
20260504174513 23 249 14.5 27.4 0.00 0.08 0.08 56 1004.5
20260504174004 24 232 17.7 33.8 0.00 0.08 0.08 58 1004.6
20260504173248 24 180 12.9 33.8 0.00 0.08 0.08 56 1004.3
20260504172748 23 176 8.0 29.0 0.00 0.08 0.08 59 1004.3
20260504172507 23 256 4.8 29.0 0.00 0.08 0.08 59 1004.4
20260504171748 23 252 14.5 29.0 0.00 0.08 0.08 58 1004.6
20260504171248 23 245 8.0 29.0 0.00 0.08 0.08 60 1004.9
20260504171011 22 172 16.1 29.0 0.00 0.08 0.08 60 1005.0
20260504170248 22 291 12.9 24.1 0.00 0.08 0.08 59 1004.6
20260504160246 20 256 3.2 35.4 0.00 0.08 0.08 63 1005.0
20260504150749 17 288 4.8 12.9 0.00 0.08 0.08 76 1005.3
20260504150249 17 226 3.2 11.3 0.00 0.08 0.08 76 1005.2
20260504141234 16 229 12.9 22.5 0.00 0.08 0.08 83 1005.7
20260504140733 15 169 9.7 24.1 0.00 0.08 0.08 83 1005.9
20260504140233 15 161 12.9 24.1 0.00 0.08 0.08 84 1006.0
20260504130717 13 211 6.4 12.9 0.08 0.08 0.08 88 1006.8
20260504130217 13 227 6.4 11.3 0.08 0.08 0.08 87 1006.8
20260504120204 13 193 8.0 11.3 0.00 0.00 0.00 85 1007.0
20260504110205 13 204 3.2 6.4 0.00 0.00 0.00 84 1007.5
20260504110153 13 238 6.4 6.4 0.00 0.00 0.00 84 1007.7
20260504100152 14 195 1.6 3.2 0.00 0.00 0.00 80 1007.8
20260504081651 15 163 6.4 11.3 0.00 0.00 0.00 79 1006.7
20260504081401 15 164 6.4 9.7 0.00 0.00 0.00 81 1007.2
20260504080640 15 177 3.2 6.4 0.00 0.00 0.00 82 1007.5
20260504080140 15 255 0.0 4.8 0.00 0.00 0.00 85 1007.5
20260504070140 13 212 0.0 0.0 0.00 0.00 0.00 87 1008.3
20260504060142 13 211 0.0 0.0 0.00 0.00 0.00 87 1008.4
20260504050115 15 241 0.0 0.0 0.00 0.00 0.00 84 1008.5
20260504045615 15 242 0.0 0.0 0.00 0.00 0.00 84 1008.6
20260504045115 15 242 0.0 1.6 0.00 0.00 0.00 85 1008.7
20260504044616 14 243 0.0 3.2 0.00 0.00 0.00 85 1008.5
20260504044336 14 243 1.6 3.2 0.00 0.00 0.00 85 1008.9
20260504043618 14 260 0.0 1.6 0.00 0.00 0.00 85 1008.8
20260504043116 14 226 0.0 3.2 0.00 0.00 0.00 84 1008.7
20260504043058 14 226 0.0 3.2 0.00 0.00 0.00 84 1008.9
20260504042116 15 226 0.0 4.8 0.00 0.00 0.00 83 1008.9
20260504041616 15 226 1.6 4.8 0.00 0.00 0.00 83 1008.9
20260504041115 15 226 0.0 3.2 0.00 0.00 0.00 82 1008.9
20260504040616 15 226 0.0 3.2 0.00 0.00 0.00 81 1009.3
20260504040116 15 226 1.6 1.6 0.00 0.00 0.00 80 1009.1
20260504035615 15 226 0.0 3.2 0.00 0.00 0.00 80 1009.2
20260504035116 16 226 0.0 3.2 0.00 0.00 0.00 79 1009.3
20260504034616 16 226 0.0 3.2 0.00 0.00 0.00 79 1009.2
20260504034115 16 226 1.6 3.2 0.00 0.00 0.00 79 1009.6
20260504033615 16 225 3.2 3.2 0.00 0.00 0.00 78 1009.3
20260504033116 16 279 0.0 0.0 0.00 0.00 0.00 76 1009.5
20260504032616 16 279 0.0 1.6 0.00 0.00 0.00 75 1009.4
20260504032116 17 279 0.0 3.2 0.00 0.00 0.00 74 1009.5
20260504031841 17 279 0.0 4.8 0.00 0.00 0.00 74 1009.7
20260504031115 17 279 1.6 4.8 0.00 0.00 0.00 74 1009.6
20260504030615 17 279 1.6 6.4 0.00 0.00 0.00 73 1009.6
20260504030116 17 280 0.0 9.7 0.00 0.00 0.00 73 1009.6
20260504025837 17 288 4.8 9.7 0.00 0.00 0.00 74 1009.6
20260504025333 17 288 1.6 4.8 0.00 0.00 0.00 73 1009.5
20260504024616 17 230 0.0 0.0 0.00 0.00 0.00 72 1009.4
20260504024115 17 230 0.0 0.0 0.00 0.00 0.00 72 1009.4
20260504023616 18 230 0.0 0.0 0.00 0.00 0.00 71 1009.1
20260504023116 18 230 0.0 0.0 0.00 0.00 0.00 70 1009.3
20260504022844 18 230 0.0 3.2 0.00 0.00 0.00 69 1009.2
20260504022115 18 230 0.0 4.8 0.00 0.00 0.00 69 1009.4
20260504021838 18 230 3.2 4.8 0.00 0.00 0.00 69 1009.5
20260504021116 18 277 3.2 4.8 0.00 0.00 0.00 71 1009.4
20260504020616 18 336 0.0 1.6 0.00 0.00 0.00 70 1008.8
20260504020342 18 336 0.0 6.4 0.00 0.00 0.00 69 1009.1
20260504015603 18 336 1.6 11.3 0.00 0.00 0.00 69 1009.2
20260504015103 18 16 6.4 11.3 0.00 0.00 0.00 69 1009.2
20260504014604 18 233 0.0 0.0 0.00 0.00 0.00 66 1009.0
20260504014319 18 233 0.0 0.0 0.00 0.00 0.00 66 1008.8
20260504013555 18 233 0.0 0.0 0.00 0.00 0.00 65 1009.1
20260504013054 19 233 0.0 0.0 0.00 0.00 0.00 64 1009.0
20260504012554 19 233 0.0 0.0 0.00 0.00 0.00 64 1009.1
20260504012312 19 233 0.0 0.0 0.00 0.00 0.00 63 1009.1
20260504011554 20 233 0.0 0.0 0.00 0.00 0.00 63 1009.1
20260504011054 20 233 0.0 0.0 0.00 0.00 0.00 62 1008.9
20260504010820 20 233 0.0 1.6 0.00 0.00 0.00 61 1008.8
20260504010054 20 233 0.0 1.6 0.00 0.00 0.00 60 1008.9
20260504005554 21 233 0.0 0.0 0.00 0.00 0.00 58 1008.9
20260504005053 21 233 0.0 0.0 0.00 0.00 0.00 57 1008.7
20260504004553 21 233 0.0 1.6 0.00 0.00 0.00 56 1009.1
20260504004054 21 233 0.0 1.6 0.00 0.00 0.00 55 1008.9
20260504003550 22 233 0.0 4.8 0.00 0.00 0.00 54 1009.0
20260504003051 22 230 3.2 4.8 0.00 0.00 0.00 54 1009.0
20260504002551 22 240 3.2 6.4 0.00 0.00 0.00 53 1008.7
20260504002050 23 219 0.0 6.4 0.00 0.00 0.00 51 1009.1
20260504001811 23 244 1.6 16.1 0.00 0.00 0.00 50 1008.8
20260504001050 23 249 6.4 16.1 0.00 0.00 0.00 49 1008.9
20260504000551 23 208 3.2 11.3 0.00 0.00 0.00 49 1008.8
20260504000051 23 347 3.2 14.5 0.00 0.00 0.00 51 1009.2
20260503235551 23 285 3.2 14.5 0.00 0.00 0.00 49 1009.0
20260503235051 23 180 3.2 14.5 0.00 0.00 0.00 49 1009.1